Flag for Japan Weather past 2 weeks in Yokosuka, Japan

Now
79 °F

Broken clouds.


Feels Like: 80 °F
Forecast: 66 / 73 °F
Wind: 7 mph from Northeast

Location: Tokyo International Airport

Current Time: Sep 17, 2014 at 1:24:26 PM

Latest Report: Sep 17, 2014 at 1:00 PM


Visibility: N/A

Pressure: 29.89 "Hg

Humidity: 58%

Dew point: 63 °F

Location of YokosukaLocation

Historic Weather in Yokosuka — Graph

°F

Yokosuka temperature yesterday

Maximum temperature yesterday: 82 °F (at 1:00 PM)
Minimum temperature yesterday: 72 °F (at 2:30 AM)
Average temperature yesterday: 76 °F

Past Weeks' High & Low Weather Summary

 TemperatureHumidityPressure
High86 °F (Sep 5, 11:30 AM)94% (Sep 6, 8:30 PM)30.01 "Hg (Sep 6, 8:30 PM)
Low66 °F (Sep 12, 2:30 AM)51% (Sep 16, 1:00 PM)29.62 "Hg (Sep 9, 2:00 AM)
Average74 °F78%29.84 "Hg
* Reported Sep 2 12:00 Noon — Sep 17 12:30 PM, Yokosuka, Weather by CustomWeather, © 2014

Note: Actual official high and low records may vary slightly from our data, if they occured in-between our weather recording intervals... More about our weather records

Advertising

Yokosuka weather history for previous 24 hours

 ConditionsComfort  
Time TempWeatherWind HumidityBarometerVisibility
12:30 PM
Sep 17
77 °FBroken clouds.7 mph57%29.89 "HgN/A
12:00 PM77 °FBroken clouds.7 mph57%29.92 "HgN/A
11:30 AM77 °FBroken clouds.5 mph57%29.92 "HgN/A
11:00 AM75 °FPartly sunny.7 mph61%29.95 "HgN/A
10:30 AM75 °FPartly sunny.9 mph57%29.95 "HgN/A
10:00 AM75 °FBroken clouds.8 mph61%29.95 "HgN/A
9:30 AM75 °FScattered clouds.8 mph61%29.98 "HgN/A
9:00 AM73 °FPartly sunny.8 mph69%29.98 "HgN/A
8:30 AM73 °FPartly sunny.12 mph65%29.98 "HgN/A
8:00 AM72 °FPartly sunny.10 mph69%29.95 "HgN/A
7:30 AM72 °FBroken clouds.8 mph73%29.98 "HgN/A
7:00 AM72 °FBroken clouds.8 mph73%29.98 "HgN/A
6:30 AM70 °FScattered clouds.9 mph78%29.98 "HgN/A
6:00 AM70 °FPartly sunny.10 mph73%29.95 "HgN/A
5:30 AM70 °FPartly sunny.12 mph78%29.95 "HgN/A
5:00 AM70 °FPassing clouds.12 mph78%29.95 "HgN/A
4:30 AM72 °FScattered showers. Partly cloudy.14 mph78%29.92 "HgN/A
4:00 AM72 °FPassing clouds.13 mph78%29.92 "HgN/A
3:30 AM72 °FPartly cloudy.17 mph78%29.92 "HgN/A
3:00 AM72 °FPassing clouds.18 mph83%29.92 "HgN/A
2:30 AM73 °FPartly cloudy.14 mph78%29.89 "HgN/A
2:00 AM72 °FPassing clouds.12 mph83%29.89 "HgN/A
1:30 AM72 °FPartly cloudy.12 mph88%29.89 "HgN/A
1:00 AM73 °FPartly cloudy.10 mph83%29.89 "HgN/A
12:30 AM73 °FPassing clouds.8 mph83%29.89 "HgN/A
12:00 AM73 °FPassing clouds.7 mph89%29.89 "HgN/A
11:30 PM
Sep 16
73 °FPassing clouds.7 mph83%29.89 "HgN/A
11:00 PM73 °FPassing clouds.8 mph89%29.86 "HgN/A
10:30 PM73 °FPassing clouds.8 mph89%29.86 "HgN/A
10:00 PM75 °FPassing clouds.9 mph83%29.86 "HgN/A
9:30 PM75 °FPassing clouds.10 mph78%29.86 "HgN/A
9:00 PM75 °FPartly cloudy.9 mph78%29.86 "HgN/A
8:30 PM77 °FPassing clouds.10 mph79%29.86 "HgN/A
8:00 PM77 °FPassing clouds.12 mph74%29.86 "HgN/A
7:30 PM77 °FPassing clouds.14 mph74%29.86 "HgN/A
7:00 PM79 °FPassing clouds.12 mph70%29.83 "HgN/A
6:30 PM79 °FPassing clouds.13 mph70%29.83 "HgN/A
6:00 PM79 °FPassing clouds.13 mph65%29.83 "HgN/A
5:30 PM81 °FScattered clouds.13 mph66%29.83 "HgN/A
5:00 PM81 °FScattered clouds.14 mph62%29.83 "HgN/A
4:30 PM81 °FPartly sunny.13 mph62%29.80 "HgN/A
4:00 PM81 °FPartly sunny.15 mph58%29.80 "HgN/A
3:30 PM82 °FPartly sunny.14 mph58%29.80 "HgN/A
3:00 PM81 °FPartly sunny.14 mph62%29.80 "HgN/A
2:30 PM82 °FPartly sunny.12 mph58%29.80 "HgN/A
2:00 PM82 °FPartly sunny.12 mph58%29.80 "HgN/A
1:30 PM81 °FPartly sunny.13 mph54%29.80 "HgN/A
1:00 PM82 °FScattered clouds.12 mph51%29.80 "HgN/A
Weather by CustomWeather, © 2014

See weather overviewHow to use our weather pages